Retour au catalogue

STARLINK-31858

ActifCommunicationsVLEO
NORAD 59658·PAYLOAD·🇺🇸 United States

Lancé May 6, 2024 depuis Cape Canaveral Space Force Station

Loading…

Prochains Passages (prochaines 24 heures)

TLE

FraisSource: CelesTrak SupGP

Époque: Sep 15, 2026, 02:18 UTC

1 59658C 24084E   26258.09631944 -.00023862  00000+0 -86412-3 0  2584
2 59658  43.0037  51.8572 0001914 270.1278  86.9737 15.27595644    11

Suivez STARLINK-31858 en temps réel avec AllMySat

Download on the App Store